Location: Bittkow
(50.3000°N, 19.0000°E)
Time: 13:04:48
(UTC+00:00)

H-2A R/B - Pass Details

Date: 19 September 2020
Orbit: 577 x 655 km, 98.5° (Epoch: 22 October)

Event Time Altitude Azimuth Distance (km) Brightness Sun altitude
Rises 02:30:32 0° 169° (S) 2,887 5.3 -18.6°
Reaches altitude 10° 02:32:42 10° 172° (S) 1,997 4.5 -18.3°
Maximum altitude 02:37:02 71° 256° (WSW) 676 2.0 -17.6°
Drops below altitude 10° 02:41:31 10° 341° (NNW) 2,056 4.8 -17.0°
Sets 02:43:47 0° 344° (NNW) 2,979 5.7 -16.7°
